Location: Unspecified
(42.9300°N, 71.1866°W)
Time: 11:17:45
(UTC-05:00)

Okean 3 - Visible Passes

Search period start: 04 December 2016 00:00
Search period end: 14 December 2016 00:00
Orbit: 578 x 603 km, 82.5° (Epoch: 03 December)

Date Brightness Start Highest point End Pass type
(mag) Time Alt. Az. Time Alt. Az. Time Alt. Az.
04 Dec 6.5 18:09:40 10° W 18:11:22 12° WNW 18:13:04 10° NW visible
05 Dec 3.6 16:37:43 10° S 16:42:01 86° W 16:46:18 10° N visible
06 Dec 4.2 16:46:11 10° SSW 16:50:24 56° W 16:54:37 10° N visible
07 Dec 5.0 16:54:51 10° SW 16:58:50 37° WNW 17:02:49 10° N visible
08 Dec 5.7 17:03:44 10° SW 17:07:18 25° WNW 17:10:52 10° NNW visible
09 Dec 6.2 17:12:54 10° WSW 17:15:48 18° WNW 17:18:43 10° NNW visible
10 Dec 6.4 17:22:38 10° W 17:24:21 12° WNW 17:26:06 10° NW visible
